TimeCET,TemperatureF,Dew PointF,Humidity,Sea Level PressureIn,VisibilityMPH,Wind Direction,Wind SpeedMPH,Gust SpeedMPH,PrecipitationIn,Events,Conditions,WindDirDegrees,DateUTC
12:00 AM,51.8,33.8,50,29.77,6.2,NW,13.8,-,N/A,,Mostly Cloudy,310,2012-12-05 23:00:00
12:30 AM,51.8,35.6,54,29.77,6.2,NW,10.4,-,N/A,,Overcast,320,2012-12-05 23:30:00
1:00 AM,53,35,38,29.79,34,WNW,16.1,,,,Clear,300,2012-12-06 00:00:00
1:00 AM,53.6,35.6,51,29.77,6.2,WNW,16.1,-,N/A,,Mostly Cloudy,300,2012-12-06 00:00:00
1:30 AM,51.8,35.6,54,29.77,6.2,WNW,13.8,27.6,N/A,,Mostly Cloudy,300,2012-12-06 00:30:00
2:00 AM,51.8,35.6,54,29.77,6.2,WNW,12.7,24.2,N/A,,Mostly Cloudy,300,2012-12-06 01:00:00
2:30 AM,51.8,33.8,50,29.77,6.2,WNW,19.6,-,N/A,,Mostly Cloudy,290,2012-12-06 01:30:00
3:00 AM,53.6,33.8,47,29.77,6.2,WNW,20.7,35.7,N/A,,Mostly Cloudy,290,2012-12-06 02:00:00
3:30 AM,53.6,35.6,51,29.77,6.2,WNW,17.3,-,N/A,,Mostly Cloudy,300,2012-12-06 02:30:00
4:00 AM,51.8,35.6,54,29.77,6.2,WNW,18.4,34.5,N/A,,Mostly Cloudy,300,2012-12-06 03:00:00
4:30 AM,51.8,33.8,50,29.74,6.2,WNW,17.3,-,N/A,,Mostly Cloudy,300,2012-12-06 03:30:00
5:00 AM,51.8,35.6,54,29.74,6.2,WNW,19.6,31.1,N/A,,Mostly Cloudy,290,2012-12-06 04:00:00
5:30 AM,53.6,35.6,51,29.74,6.2,WNW,17.3,28.8,N/A,,Mostly Cloudy,290,2012-12-06 04:30:00
6:00 AM,53.6,35.6,51,29.74,6.2,WNW,25.3,-,N/A,,Partly Cloudy,290,2012-12-06 05:00:00
6:30 AM,51.8,35.6,54,29.74,6.2,NW,18.4,33.4,N/A,,Scattered Clouds,310,2012-12-06 05:30:00
7:00 AM,52,34,38,29.79,19,WNW,19.6,,,,Mostly Cloudy,300,2012-12-06 06:00:00
7:00 AM,51.8,35.6,54,29.77,6.2,WNW,20.7,36.8,N/A,,Scattered Clouds,300,2012-12-06 06:00:00
7:30 AM,51.8,33.8,50,29.77,6.2,WNW,19.6,32.2,N/A,,Scattered Clouds,300,2012-12-06 06:30:00
8:00 AM,51.8,33.8,50,29.80,6.2,WNW,18.4,-,N/A,,Scattered Clouds,300,2012-12-06 07:00:00
8:30 AM,51.8,33.8,50,29.80,6.2,NW,13.8,26.5,N/A,,Scattered Clouds,310,2012-12-06 07:30:00
9:30 AM,50.0,33.8,54,29.83,6.2,NW,6.9,-,N/A,,Partly Cloudy,320,2012-12-06 08:30:00
10:00 AM,51.8,33.8,50,29.83,6.2,NNW,9.2,-,N/A,,Partly Cloudy,330,2012-12-06 09:00:00
10:30 AM,51.8,33.8,50,29.83,6.2,NW,5.8,-,N/A,,Partly Cloudy,310,2012-12-06 09:30:00
11:00 AM,51.8,32.0,47,29.83,6.2,WNW,6.9,-,N/A,,Scattered Clouds,290,2012-12-06 10:00:00
11:30 AM,53.6,33.8,47,29.83,6.2,Variable,2.3,-,N/A,,Scattered Clouds,0,2012-12-06 10:30:00
1:00 PM,56,35,32,29.85,25,South,5.8,,,,Clear,190,2012-12-06 12:00:00
2:00 PM,57.2,32.0,38,29.83,6.2,Variable,3.5,-,N/A,,Scattered Clouds,0,2012-12-06 13:00:00
2:30 PM,53.6,33.8,47,29.86,6.2,SW,4.6,-,N/A,,Scattered Clouds,230,2012-12-06 13:30:00
3:00 PM,53.6,33.8,47,29.86,6.2,WSW,10.4,-,N/A,,Scattered Clouds,240,2012-12-06 14:00:00
3:30 PM,53.6,37.4,54,29.86,6.2,WSW,8.1,-,N/A,,Scattered Clouds,250,2012-12-06 14:30:00
4:00 PM,51.8,39.2,62,29.86,6.2,South,10.4,-,N/A,,Light Drizzle,190,2012-12-06 15:00:00
4:30 PM,50.0,39.2,66,29.89,6.2,South,9.2,-,N/A,Rain,Light Rain,180,2012-12-06 15:30:00
5:00 PM,50.0,39.2,66,29.89,6.2,SSE,6.9,-,N/A,,Scattered Clouds,150,2012-12-06 16:00:00
5:30 PM,48.2,37.4,66,29.89,6.2,East,5.8,-,N/A,,Scattered Clouds,80,2012-12-06 16:30:00
6:00 PM,48.2,37.4,66,29.89,6.2,ENE,8.1,-,N/A,,Scattered Clouds,70,2012-12-06 17:00:00
6:30 PM,44.6,37.4,76,29.89,6.2,NE,11.5,-,N/A,,Scattered Clouds,50,2012-12-06 17:30:00
7:00 PM,44,36,63,29.92,19,NE,8.1,,,,Partly Cloudy,40,2012-12-06 18:00:00
7:00 PM,44.6,35.6,71,29.89,6.2,NE,8.1,-,N/A,,Scattered Clouds,40,2012-12-06 18:00:00
7:30 PM,44.6,35.6,71,29.92,6.2,NNE,6.9,-,N/A,,Scattered Clouds,30,2012-12-06 18:30:00
8:00 PM,41.0,35.6,81,29.92,6.2,NE,4.6,-,N/A,,Scattered Clouds,40,2012-12-06 19:00:00
8:30 PM,42.8,35.6,76,29.92,6.2,ENE,8.1,-,N/A,,Partly Cloudy,70,2012-12-06 19:30:00
9:11 PM,41.0,33.8,76,29.95,6.2,NE,8.1,-,N/A,,Partly Cloudy,50,2012-12-06 20:11:00
9:30 PM,41.0,35.6,81,29.95,6.2,ENE,9.2,-,N/A,,Scattered Clouds,60,2012-12-06 20:30:00
10:00 PM,41.0,33.8,76,29.95,6.2,NE,6.9,-,N/A,,Scattered Clouds,40,2012-12-06 21:00:00
10:30 PM,41.0,35.6,81,29.95,6.2,NNE,9.2,-,N/A,,Scattered Clouds,30,2012-12-06 21:30:00
11:00 PM,39.2,33.8,81,29.95,6.2,NE,10.4,-,N/A,,Scattered Clouds,40,2012-12-06 22:00:00
11:30 PM,41.0,33.8,76,29.95,6.2,NE,9.2,-,N/A,,Scattered Clouds,40,2012-12-06 22:30:00